Temperature
15 15 16 16 19 20 20 20 19 19 19 17 17 18 19 20 20 18 14 13 13 13 14 14 14 14 15 15 15 15 15 15 15 15 15 15 15 15 15 15 15 15 15 15 15 15 15 15 15
15 15 15 17 20 21 20 19 19 18 17 16 16 17 18 17 15 14 13 13 13 13 13 14 14 14 14 14 14 15 14 15 15 15 15 15 15 15 15 15 15 15 15 15 15 15 14 14 14
14 15 16 18 19 21 20 18 18 17 15 15 16 16 16 16 14 13 13 13 13 13 13 13 14 14 14 14 14 14 14 14 14 15 15 15 15 15 15 15 15 15 15 15 14 14 14 14 14
14 15 16 18 18 18 18 18 17 16 15 15 16 16 14 13 12 12 12 12 12 13 13 13 13 14 14 14 14 14 14 14 14 14 14 14 15 15 14 15 14 14 14 14 14 14 14 14 14
14 16 17 17 17 17 17 16 15 16 16 15 15 16 14 12 12 12 12 12 12 12 12 13 13 13 13 13 14 14 14 14 14 14 14 14 14 14 14 14 14 14 14 14 14 14 14 14 14
14 16 18 18 17 16 16 14 15 15 15 14 14 15 14 12 12 12 12 12 12 12 12 12 13 13 13 13 13 13 13 14 14 14 14 14 14 14 14 14 14 14 14 14 14 14 14 14 14
15 16 17 17 16 15 15 14 14 15 15 14 13 14 13 12 11 11 11 11 11 12 12 12 12 12 12 13 13 13 13 13 13 13 13 14 14 14 14 14 14 14 14 14 14 14 14 14 14
12 15 15 15 15 15 14 12 12 13 13 12 11 13 13 11 10 10 11 11 11 11 11 11 12 12 12 12 12 12 13 13 13 13 13 13 13 13 14 14 14 14 14 14 13 13 14 13 13
11 15 15 15 15 14 12 12 11 11 11 11 10 11 11 10 10 10 10 10 11 11 11 11 11 11 11 12 12 12 12 12 12 12 13 13 13 13 13 13 13 14 13 13 13 13 13 13 13
12 14 14 13 14 13 12 11 11 11 11 11 10 10 9 9 9 10 10 10 10 10 10 11 11 11 11 11 11 11 11 12 12 12 12 12 12 12 13 13 13 13 13 13 13 13 13 13 12
11 12 12 11 11 11 11 10 10 11 12 11 10 9 9 9 9 9 9 9 9 10 10 10 10 10 11 11 11 11 11 11 11 12 12 12 12 12 12 12 12 12 12 12 12 12 12 12 12
11 10 10 10 9 10 10 10 10 10 10 9 9 8 8 8 9 9 9 9 9 9 10 10 10 10 10 10 10 10 11 11 11 11 11 11 11 11 11 12 12 12 12 12 12 12 12 12 12
10 10 9 9 8 9 9 9 9 9 8 8 8 8 8 8 8 8 8 8 8 9 9 9 9 10 10 10 10 10 10 10 10 11 11 11 11 11 11 11 11 11 11 11 11 11 11 11 11
10 9 9 9 9 8 9 9 9 9 8 8 8 8 8 7 7 8 8 8 8 9 9 9 9 9 9 9 9 10 10 10 10 10 10 10 10 10 10 10 11 11 11 11 11 11 11 11 11
9 10 10 9 9 9 9 9 9 8 7 8 7 7 7 7 7 7 7 7 7 8 8 8 8 8 9 9 9 9 9 9 9 10 10 10 10 10 10 10 10 10 10 10 10 10 10 10 10
10 11 11 10 9 9 9 10 10 7 7 8 7 7 7 7 7 7 7 7 7 7 8 8 8 8 8 8 8 8 9 9 9 9 9 9 9 9 9 9 10 10 10 10 10 10 10 10 10
10 11 11 10 9 9 9 10 9 7 7 7 7 7 7 7 6 6 7 7 7 7 7 7 8 8 8 8 8 8 8 8 8 9 9 9 9 9 9 9 9 9 9 9 9 9 9 9 9
10 11 10 10 9 9 9 9 9 8 7 7 7 7 7 6 6 6 6 6 7 7 7 7 7 7 7 7 7 7 8 8 8 8 8 8 8 8 8 9 9 9 9 9 9 9 9 9 9
10 10 10 10 9 8 9 9 9 8 7 7 7 7 6 6 6 6 6 6 6 6 6 6 7 7 7 7 7 7 7 7 7 7 8 8 8 8 8 8 8 8 8 8 8 8 8 8 9
9 9 9 9 8 8 8 9 9 8 7 7 7 7 6 6 6 5 5 6 6 6 6 6 6 6 6 6 6 6 6 7 7 7 7 7 7 7 7 8 8 8 8 8 8 8 8 8 8
9 9 9 8 8 8 8 9 9 8 7 7 6 6 6 5 5 5 5 5 5 5 6 6 6 6 6 6 6 6 6 6 6 6 7 7 7 7 7 7 7 7 7 7 8 7 8 7 7
9 8 8 8 8 9 8 9 10 9 8 7 7 6 6 5 5 5 5 5 5 5 5 5 5 5 6 6 6 6 6 6 6 6 6 6 6 6 6 7 7 7 7 7 7 7 7 7 7
8 7 7 8 8 8 8 8 10 9 8 8 7 6 5 5 5 4 4 5 5 5 5 5 5 5 5 5 5 5 5 5 5 5 5 6 6 6 6 6 6 6 7 7 7 7 7 6 6
7 7 8 7 8 8 8 9 10 9 8 8 7 6 5 5 4 4 4 4 4 5 5 5 5 5 5 5 5 5 5 5 5 5 5 5 5 5 6 6 6 6 6 6 6 6 6 6 6
7 8 9 9 9 9 8 8 9 9 7 7 7 6 5 4 4 4 4 4 4 4 4 4 4 4 4 5 4 4 4 5 5 5 5 5 5 5 5 5 6 6 6 6 6 6 6 6 6
7 8 8 9 10 10 8 8 9 8 7 6 5 5 4 4 4 4 4 4 4 4 4 4 4 4 4 4 4 4 4 4 4 4 4 4 5 5 5 5 5 5 5 5 5 5 5 6 5
7 7 7 7 7 7 9 9 8 7 6 6 5 5 4 4 4 3 3 3 3 3 3 3 3 4 4 4 4 4 4 4 4 4 4 4 4 4 4 5 5 5 5 5 5 5 5 5 5
7 7 7 7 8 9 9 9 9 8 7 6 6 5 4 4 3 3 3 3 3 3 3 3 3 3 3 3 3 4 4 4 4 4 4 4 4 4 4 4 4 4 5 5 5 4 4 5 4
6 6 6 7 7 8 9 10 8 7 7 6 6 4 4 3 3 3 3 3 3 3 3 3 3 3 3 3 3 3 4 4 4 4 4 4 4 4 4 4 4 4 4 4 4 4 4 4 4
6 6 6 7 6 6 8 9 7 6 6 5 5 4 3 3 3 3 2 2 2 2 2 3 3 3 3 3 3 3 3 3 3 4 4 4 4 4 3 3 4 4 4 4 4 4 4 4 3
Wind_Speed
6 4 2 2 4 4 8 6 4 3 3 1 1 2 2 2 1 1 3 3 3 2 2 2 3 3 2 3 4 4 4 4 4 4 4 5 4 4 4 4 4 4 4 5 5 5 6 7 7
4 2 2 3 6 9 8 7 6 4 2 0 1 3 2 1 2 3 2 3 2 2 2 2 3 3 2 3 3 4 4 3 4 4 4 4 4 5 4 3 4 4 4 5 5 5 5 6 6
2 1 2 3 5 9 7 4 3 2 1 2 2 2 2 1 1 2 3 2 1 2 2 2 3 3 3 2 3 3 4 3 3 3 4 4 4 4 4 4 3 3 3 4 4 5 5 5 6
1 2 2 4 9 7 5 2 2 2 2 2 2 2 1 2 3 3 3 2 1 2 2 2 2 3 3 3 2 3 3 3 3 3 3 3 4 4 4 4 4 2 3 3 4 4 4 4 5
1 3 5 6 8 6 3 2 3 4 3 2 3 3 2 2 4 4 3 2 1 1 2 2 2 2 3 4 3 2 3 3 4 3 3 4 4 4 4 4 4 3 2 3 3 3 3 4 4
2 3 6 9 8 5 3 3 4 4 3 3 4 5 3 1 3 4 4 3 2 2 2 1 1 2 3 3 4 3 3 4 4 4 4 4 4 4 4 4 3 3 2 2 2 2 2 3 4
2 4 6 7 6 5 4 3 4 4 4 4 4 5 3 1 3 4 3 3 3 3 2 2 1 2 2 3 3 4 3 3 3 3 3 3 3 3 3 3 3 2 2 1 2 2 2 2 3
1 3 5 6 7 5 2 2 3 4 4 2 3 4 4 3 4 4 3 3 3 3 3 2 1 1 1 1 3 3 3 3 3 3 3 2 2 2 3 3 3 2 1 1 1 1 2 2 3
1 4 6 6 5 3 2 3 3 3 3 4 4 5 5 3 3 3 3 3 3 3 3 3 2 1 0 1 1 2 3 3 2 2 2 1 1 2 2 2 3 3 1 1 1 1 1 2 3
1 5 5 3 3 3 2 3 4 4 5 5 5 4 3 2 2 2 3 3 3 3 3 2 3 2 1 0 1 0 1 1 1 0 0 0 0 0 1 2 3 3 3 1 1 1 2 2 2
1 3 3 2 2 2 3 3 4 6 7 6 5 4 3 3 3 4 4 4 3 3 3 3 2 3 1 1 0 0 0 0 0 0 0 0 0 0 0 1 1 1 1 1 1 1 1 1 1
2 1 2 2 2 3 4 4 4 6 6 5 4 4 3 3 4 5 4 4 3 3 3 3 3 2 2 1 1 1 0 1 1 1 1 0 0 0 0 0 0 0 1 1 1 1 1 1 2
3 2 1 1 1 2 3 5 6 7 6 5 3 3 4 4 4 5 4 4 4 3 3 3 3 2 2 1 1 1 1 1 1 0 1 1 0 1 1 0 1 1 1 1 2 2 2 2 2
3 2 2 3 2 2 3 5 5 6 4 4 4 4 4 5 5 4 4 4 4 3 3 3 2 2 2 2 2 1 1 1 1 1 1 1 1 1 1 1 1 1 1 1 2 2 2 2 2
3 2 2 2 3 2 3 5 6 5 5 5 5 5 5 5 4 5 5 5 5 4 3 3 2 2 2 1 2 2 1 1 1 1 1 1 1 1 1 1 1 1 2 2 2 2 2 2 2
3 3 2 1 2 2 4 7 4 2 4 5 5 5 5 5 5 5 5 5 5 4 3 2 2 2 2 1 2 2 1 1 1 1 1 1 2 2 1 1 1 2 2 2 2 2 2 2 2
3 4 4 3 2 3 5 7 5 3 4 6 5 5 5 4 4 4 5 4 4 4 3 2 2 1 1 2 1 1 1 1 1 1 1 1 2 2 1 1 1 2 2 2 2 2 2 2 2
3 4 5 5 2 4 7 9 7 5 5 5 5 5 5 4 4 4 4 4 4 3 3 2 2 1 1 1 1 1 1 1 1 1 1 1 2 3 2 1 2 1 1 2 2 3 3 3 2
4 5 6 6 4 6 9 10 8 6 5 5 5 5 4 4 4 4 4 3 3 3 3 3 1 1 1 1 2 2 2 2 1 1 1 1 2 3 2 1 1 2 2 2 2 3 3 2 1
4 5 6 6 4 5 8 11 9 6 6 5 5 5 5 4 4 4 4 3 3 3 3 3 2 2 2 2 2 2 2 2 2 1 2 1 2 2 2 2 2 2 2 2 2 3 3 2 2
4 6 6 7 7 4 6 7 5 5 5 5 5 5 4 3 4 4 4 4 4 4 3 3 3 3 3 2 2 2 2 2 2 2 2 2 2 2 2 3 3 3 3 3 3 3 3 2 2
5 4 6 6 6 3 3 5 4 4 4 4 4 5 5 4 4 4 4 4 4 4 3 3 4 3 3 3 3 4 3 3 3 3 2 2 2 3 2 3 3 3 3 3 3 3 3 3 3
3 4 6 6 6 5 4 5 5 3 4 5 5 5 5 5 5 5 4 4 4 4 3 3 4 4 3 3 4 4 4 3 3 3 3 3 2 2 3 3 3 3 2 3 3 3 3 3 3
2 3 3 4 4 5 4 5 5 2 4 5 5 5 5 5 5 5 5 4 4 4 4 4 4 4 4 4 4 5 5 4 4 4 4 3 2 2 3 3 3 3 2 3 3 4 4 3 3
2 2 2 2 3 3 1 5 5 2 3 4 4 5 5 5 5 5 5 5 5 5 5 4 5 5 4 4 4 5 5 6 6 5 4 4 3 3 3 3 3 3 3 3 3 4 4 4 4
3 3 2 3 4 3 3 6 4 1 2 3 4 4 4 5 5 5 6 5 5 5 5 5 5 5 4 4 5 5 5 5 4 5 4 4 3 3 3 4 4 4 4 4 4 4 4 3 3
2 2 2 2 3 4 5 4 5 2 3 4 4 4 5 6 6 6 6 6 5 5 5 5 5 5 5 5 5 5 5 5 5 5 4 3 3 3 4 4 4 4 4 4 4 3 4 4 4
1 2 2 3 3 4 5 5 4 4 5 5 5 5 6 6 6 6 6 6 5 5 5 5 5 5 5 5 4 4 4 5 4 3 4 3 4 3 4 4 4 4 3 4 4 4 4 4 3
3 3 3 2 3 4 4 4 1 3 4 5 6 5 6 6 6 6 6 6 5 5 5 5 4 4 5 5 4 4 4 4 4 3 3 3 3 3 3 4 4 3 3 3 3 4 3 3 3
4 4 5 3 4 4 5 4 1 3 4 4 6 6 6 6 5 6 6 5 5 5 5 5 4 4 4 4 3 3 4 4 3 2 2 2 3 3 3 4 3 3 3 3 3 3 3 3 3
Wind_Direction
331 320 269 215 206 213 229 217 217 202 207 246 270 244 241 240 289 46 51 39 34 62 73 105 55 47 75 89 87 80 90 86 88 90 85 80 75 78 91 98 99 105 116 111 112 118 123 119 119
331 300 216 212 222 223 225 219 215 217 197 136 232 247 242 231 28 55 49 21 31 67 75 97 59 45 58 92 93 88 86 92 90 90 89 84 77 68 69 88 89 100 113 116 116 116 117 127 124
324 301 206 198 219 230 221 199 209 200 196 247 241 251 273 298 36 27 14 13 45 74 64 81 64 51 45 81 104 98 91 85 90 95 90 86 80 68 62 66 77 88 101 118 122 121 121 122 133
244 178 192 217 219 230 236 204 199 193 199 244 255 221 178 38 9 3 14 17 58 71 53 69 61 52 47 57 94 104 98 87 83 92 92 86 81 72 61 56 59 80 96 101 124 128 130 122 127
245 198 199 216 228 228 241 261 230 232 223 237 250 250 230 72 22 21 17 13 25 59 45 58 71 64 51 45 57 95 96 89 82 86 94 92 84 76 71 65 57 62 101 108 114 128 136 135 131
179 205 214 223 223 226 228 242 238 247 247 257 259 255 246 52 16 10 8 3 3 19 36 52 108 85 66 53 53 54 77 80 75 71 83 90 85 80 76 71 64 59 88 122 128 128 137 149 153
203 200 217 222 223 227 233 241 247 252 253 260 281 261 241 279 2 351 357 4 2 12 17 23 136 129 96 67 62 53 59 72 75 70 68 79 86 92 77 71 62 61 59 89 133 152 150 142 164
249 184 206 218 223 229 215 237 261 264 264 293 273 257 258 307 339 334 354 2 357 0 4 359 26 105 129 106 70 65 55 53 69 68 66 80 97 106 89 76 64 56 59 58 132 146 160 153 150
243 206 216 219 223 218 188 240 258 280 258 266 267 281 307 316 311 324 337 343 343 343 354 354 348 345 249 179 92 84 73 61 69 67 66 101 141 131 114 68 56 43 41 71 142 177 175 168 162
212 213 225 232 236 230 224 262 268 251 255 265 268 286 305 288 285 294 296 307 320 325 333 345 338 328 305 236 132 165 122 90 66 83 40 322 353 10 25 75 58 45 35 44 167 205 187 201 188
165 210 205 237 256 239 238 263 267 252 262 272 277 285 280 278 285 281 281 283 294 304 322 329 328 326 310 337 313 309 36 49 356 349 333 300 342 5 11 85 77 49 24 18 68 223 222 230 231
141 186 233 244 257 244 243 250 254 257 271 299 287 285 260 272 277 276 280 289 289 299 309 328 327 316 313 314 312 314 333 309 313 330 296 292 18 331 311 248 313 320 341 318 294 278 265 249 230
179 179 215 231 245 260 251 256 263 267 280 283 274 274 267 268 275 282 292 296 295 292 300 316 324 305 312 308 303 314 292 271 276 315 310 274 253 265 287 302 307 277 303 277 280 271 263 251 252
171 182 233 259 252 266 262 277 261 266 274 268 259 270 268 265 270 282 292 298 295 290 303 316 319 328 324 328 310 302 305 290 287 317 317 286 265 262 274 275 282 283 279 275 269 280 272 251 255
174 196 248 254 254 256 270 265 247 261 262 266 270 274 272 269 271 274 279 287 289 285 296 303 304 325 319 317 315 311 308 297 302 320 300 304 287 260 258 268 270 292 275 255 261 266 274 256 253
205 219 246 272 265 253 250 258 252 256 263 267 274 278 274 273 274 277 280 284 290 289 295 299 300 296 320 318 309 315 305 301 292 289 299 294 302 267 247 264 273 294 275 252 247 247 261 256 256
205 239 257 274 260 265 246 263 265 277 265 267 270 275 277 279 289 294 289 286 289 290 294 291 293 291 320 323 294 307 305 282 278 271 308 299 306 282 251 256 277 284 269 251 247 251 258 256 256
237 253 260 270 284 269 257 262 271 270 258 264 267 274 275 282 297 304 302 299 294 293 296 293 303 315 331 333 288 303 295 279 290 281 296 293 302 291 269 258 266 266 252 251 253 253 265 255 248
236 245 270 285 289 273 260 266 270 263 251 260 269 274 272 285 306 321 322 313 307 303 299 294 295 303 308 315 288 275 272 268 266 286 283 294 311 291 263 262 257 259 247 247 250 247 252 259 254
235 251 282 295 297 277 269 270 265 245 242 251 259 269 273 291 314 323 322 323 311 301 297 295 286 281 281 271 276 263 270 264 264 274 294 299 303 296 261 249 246 244 246 241 244 245 247 257 252
241 249 273 286 303 256 276 270 237 232 235 244 260 272 279 289 300 308 312 311 310 307 298 289 282 268 263 265 282 263 259 260 257 256 265 288 287 280 270 253 246 238 237 239 243 246 246 250 252
247 255 264 267 276 265 261 282 251 233 239 258 267 273 279 290 293 299 305 308 303 301 294 283 277 267 262 254 249 252 247 249 260 258 260 270 285 284 271 257 247 240 238 240 240 249 254 249 248
255 276 264 257 255 266 239 252 267 223 254 280 281 281 287 291 295 303 306 306 305 305 295 287 283 273 266 256 251 258 251 253 257 256 255 262 264 276 271 256 246 242 242 243 240 245 249 246 248
259 278 253 227 232 249 235 242 271 240 255 286 295 295 301 302 305 308 310 308 309 313 308 293 283 277 268 261 259 256 250 247 246 246 245 254 253 257 264 259 245 239 243 243 240 242 242 247 245
241 250 271 245 236 250 196 246 259 257 261 272 279 291 305 312 309 305 309 311 309 310 310 298 288 283 277 269 264 256 255 244 240 240 242 248 248 250 255 253 245 239 240 239 236 237 240 246 244
210 234 252 269 273 291 247 248 270 325 293 286 283 289 304 313 312 311 310 311 303 300 299 295 290 285 281 274 268 260 263 251 243 239 242 245 250 252 254 247 244 239 236 232 229 234 235 240 240
189 219 284 266 285 273 255 267 278 283 295 299 300 302 305 310 313 315 318 320 316 310 305 298 292 290 286 275 268 263 267 257 252 243 241 243 250 247 248 245 239 234 233 234 230 232 232 234 229
274 172 187 223 264 272 272 267 274 282 291 301 302 299 307 312 317 318 319 322 319 314 309 306 296 292 290 281 269 262 267 261 252 244 243 242 243 240 246 245 234 228 228 231 230 234 233 233 221
176 185 217 230 258 262 277 274 309 282 296 296 296 301 304 307 313 316 318 323 323 319 315 310 306 303 298 288 269 268 273 270 252 240 245 246 245 239 241 238 226 227 229 230 226 231 233 226 214
233 223 207 231 240 239 267 278 38 309 303 299 302 305 308 309 313 316 318 323 324 320 316 313 312 308 302 298 293 283 273 268 267 258 252 253 249 245 239 229 218 219 225 228 225 225 225 213 205
Height
1519 1519 1521 1524 1523 1519 1517 1518 1519 1522 1524 1526 1526 1525 1523 1523 1524 1529 1530 1526 1526 1526 1526 1526 1527 1527 1527 1527 1527 1527 1527 1527 1527 1527 1526 1526 1526 1526 1526 1526 1526 1526 1526 1526 1526 1526 1526 1526 1526
1519 1520 1523 1523 1517 1514 1515 1517 1521 1523 1526 1527 1527 1527 1525 1526 1528 1528 1527 1526 1526 1526 1526 1526 1526 1526 1527 1527 1526 1526 1526 1526 1526 1526 1526 1526 1526 1526 1526 1526 1526 1526 1526 1526 1526 1526 1526 1526 1526
1519 1520 1523 1520 1516 1511 1513 1519 1521 1525 1527 1528 1527 1527 1527 1528 1529 1528 1527 1526 1526 1526 1526 1526 1526 1526 1526 1526 1526 1526 1526 1526 1526 1526 1525 1525 1525 1525 1525 1525 1525 1525 1525 1525 1525 1525 1526 1526 1526
1520 1522 1523 1519 1516 1516 1517 1521 1525 1526 1528 1528 1528 1527 1528 1529 1529 1528 1526 1526 1526 1526 1526 1525 1525 1525 1525 1525 1525 1525 1525 1525 1524 1524 1524 1524 1524 1524 1524 1524 1524 1524 1524 1524 1524 1525 1525 1525 1525
1520 1521 1519 1518 1517 1519 1522 1525 1527 1525 1526 1528 1528 1526 1527 1528 1527 1527 1526 1526 1526 1525 1525 1524 1524 1524 1524 1524 1524 1524 1524 1524 1523 1523 1523 1523 1523 1523 1523 1523 1523 1523 1523 1523 1523 1524 1524 1524 1525
1521 1518 1515 1514 1516 1521 1524 1527 1527 1526 1526 1528 1528 1526 1527 1527 1526 1526 1525 1525 1525 1524 1524 1523 1523 1523 1523 1523 1523 1523 1523 1522 1522 1522 1522 1522 1522 1522 1522 1522 1522 1522 1522 1522 1522 1522 1523 1523 1523
1520 1517 1514 1514 1517 1521 1525 1527 1528 1526 1526 1528 1528 1526 1526 1527 1526 1525 1524 1524 1524 1524 1523 1522 1522 1522 1522 1522 1522 1521 1521 1521 1521 1521 1520 1520 1521 1521 1521 1520 1520 1521 1521 1521 1521 1521 1521 1522 1522
1520 1519 1517 1517 1518 1521 1526 1528 1528 1528 1527 1529 1529 1527 1526 1527 1525 1524 1524 1523 1523 1522 1522 1521 1521 1521 1521 1520 1520 1520 1520 1520 1519 1519 1519 1519 1519 1519 1519 1519 1519 1519 1519 1519 1519 1519 1520 1520 1520
1521 1520 1516 1517 1519 1522 1527 1527 1528 1528 1528 1528 1527 1527 1526 1525 1524 1523 1522 1522 1521 1521 1520 1520 1519 1519 1519 1519 1519 1519 1519 1518 1518 1518 1517 1517 1517 1517 1517 1517 1517 1517 1517 1517 1517 1517 1517 1518 1519
1522 1518 1518 1521 1522 1523 1526 1527 1527 1527 1526 1525 1525 1525 1525 1524 1523 1522 1521 1520 1519 1519 1519 1518 1518 1517 1517 1517 1517 1517 1517 1516 1516 1516 1516 1516 1516 1516 1516 1515 1515 1515 1515 1516 1516 1516 1516 1516 1517
1523 1521 1523 1524 1525 1525 1526 1526 1527 1525 1523 1524 1524 1524 1523 1523 1522 1521 1520 1519 1518 1517 1517 1517 1516 1516 1516 1515 1515 1515 1514 1514 1514 1514 1514 1514 1514 1514 1514 1514 1513 1513 1513 1513 1514 1514 1514 1514 1515
1524 1525 1525 1525 1526 1526 1525 1525 1525 1524 1523 1523 1523 1522 1521 1520 1520 1519 1518 1517 1516 1516 1515 1515 1514 1514 1514 1513 1513 1512 1512 1512 1512 1512 1511 1511 1511 1511 1511 1511 1511 1511 1511 1511 1511 1512 1512 1512 1512
1524 1526 1526 1526 1526 1525 1524 1524 1523 1522 1522 1522 1521 1520 1519 1519 1518 1518 1517 1515 1514 1513 1513 1513 1512 1512 1511 1511 1511 1510 1510 1510 1510 1509 1509 1509 1509 1509 1509 1509 1509 1509 1509 1510 1509 1509 1509 1509 1510
1525 1525 1526 1525 1525 1524 1523 1522 1522 1520 1520 1520 1519 1518 1518 1517 1516 1515 1514 1513 1512 1511 1511 1510 1509 1509 1508 1508 1508 1508 1508 1508 1507 1507 1507 1507 1507 1507 1507 1507 1507 1507 1507 1507 1507 1507 1507 1507 1507
1525 1524 1523 1523 1523 1523 1523 1519 1519 1518 1519 1518 1517 1516 1515 1515 1514 1512 1512 1510 1509 1508 1508 1508 1507 1506 1506 1506 1506 1506 1505 1505 1505 1504 1504 1504 1504 1504 1504 1504 1504 1504 1505 1505 1505 1505 1505 1505 1505
1523 1520 1518 1520 1522 1522 1523 1514 1516 1517 1517 1515 1515 1514 1513 1512 1511 1510 1509 1508 1507 1506 1506 1505 1505 1505 1504 1504 1503 1503 1503 1502 1502 1502 1502 1501 1501 1502 1502 1502 1502 1502 1502 1502 1502 1503 1503 1502 1502
1519 1516 1515 1518 1521 1521 1519 1513 1514 1515 1515 1513 1512 1512 1510 1509 1508 1508 1507 1506 1504 1504 1503 1503 1502 1501 1500 1500 1501 1500 1500 1500 1500 1499 1499 1498 1499 1499 1499 1499 1499 1499 1499 1500 1500 1500 1500 1500 1499
1517 1515 1516 1516 1518 1519 1516 1511 1512 1513 1512 1511 1510 1509 1508 1507 1506 1505 1504 1503 1502 1501 1501 1500 1499 1499 1498 1497 1497 1497 1497 1497 1497 1496 1497 1496 1496 1496 1496 1496 1497 1497 1497 1497 1497 1497 1497 1497 1497
1518 1517 1516 1516 1517 1518 1512 1509 1508 1510 1510 1508 1507 1507 1506 1505 1504 1502 1501 1500 1499 1498 1498 1497 1496 1496 1495 1495 1495 1494 1494 1494 1494 1494 1494 1494 1494 1494 1494 1494 1494 1494 1494 1494 1494 1494 1495 1494 1494
1518 1517 1515 1515 1516 1515 1511 1506 1505 1506 1506 1506 1505 1504 1503 1502 1501 1499 1498 1496 1496 1495 1494 1493 1493 1493 1493 1493 1493 1492 1492 1492 1491 1491 1491 1491 1491 1491 1491 1491 1491 1491 1491 1491 1491 1492 1492 1492 1492
1517 1516 1515 1516 1515 1514 1513 1500 1500 1502 1503 1503 1503 1502 1500 1499 1498 1497 1495 1494 1494 1493 1492 1491 1491 1491 1491 1491 1490 1490 1490 1489 1489 1488 1487 1488 1488 1488 1488 1488 1488 1488 1488 1488 1488 1489 1489 1489 1489
1515 1517 1517 1516 1514 1507 1510 1499 1492 1496 1498 1499 1499 1499 1498 1497 1496 1495 1493 1492 1491 1490 1489 1489 1488 1488 1488 1488 1487 1487 1486 1486 1485 1485 1484 1484 1485 1485 1485 1485 1485 1485 1485 1485 1485 1486 1486 1487 1486
1516 1517 1516 1514 1512 1510 1506 1504 1489 1493 1494 1495 1496 1496 1496 1495 1494 1492 1491 1490 1489 1488 1487 1486 1486 1485 1484 1484 1484 1483 1484 1483 1482 1482 1482 1481 1481 1481 1482 1482 1482 1481 1482 1482 1482 1483 1483 1484 1484
1519 1517 1514 1513 1510 1507 1502 1501 1488 1489 1492 1492 1494 1494 1494 1493 1492 1491 1490 1489 1487 1486 1485 1484 1483 1482 1482 1481 1480 1481 1480 1480 1479 1479 1478 1478 1477 1478 1478 1478 1478 1478 1478 1479 1479 1480 1480 1481 1481
1518 1514 1508 1505 1502 1496 1502 1499 1489 1489 1492 1492 1493 1493 1492 1491 1490 1489 1487 1486 1485 1483 1482 1481 1479 1479 1478 1477 1477 1477 1477 1477 1476 1476 1475 1475 1474 1474 1475 1475 1475 1475 1475 1476 1476 1476 1477 1477 1477
1516 1513 1511 1506 1496 1492 1500 1495 1486 1490 1492 1492 1492 1492 1491 1490 1488 1487 1485 1484 1482 1481 1479 1478 1477 1475 1475 1474 1474 1474 1474 1473 1473 1473 1472 1471 1471 1471 1471 1472 1471 1472 1472 1473 1473 1473 1473 1474 1475
1516 1514 1515 1513 1510 1506 1491 1490 1489 1490 1490 1491 1490 1490 1489 1488 1486 1485 1483 1481 1480 1478 1477 1476 1474 1472 1471 1471 1471 1471 1470 1469 1470 1469 1469 1468 1467 1468 1468 1468 1468 1469 1469 1470 1470 1470 1470 1471 1472
1517 1515 1516 1513 1506 1496 1487 1486 1483 1485 1487 1488 1488 1488 1487 1486 1484 1483 1481 1479 1478 1476 1475 1473 1471 1470 1469 1468 1467 1467 1467 1466 1466 1465 1465 1464 1464 1464 1465 1465 1465 1465 1465 1466 1466 1467 1467 1468 1469
1518 1518 1514 1510 1508 1500 1489 1482 1484 1486 1487 1487 1487 1487 1486 1485 1483 1482 1480 1478 1476 1474 1472 1470 1468 1467 1465 1464 1464 1463 1463 1463 1462 1462 1461 1461 1461 1461 1461 1461 1461 1461 1462 1462 1463 1463 1464 1465 1465
1514 1512 1512 1510 1508 1506 1496 1488 1487 1488 1488 1488 1487 1486 1485 1484 1482 1480 1478 1476 1473 1471 1469 1467 1465 1464 1462 1461 1460 1460 1460 1459 1459 1458 1458 1458 1458 1458 1458 1458 1458 1458 1459 1459 1459 1460 1461 1461 1462